Ahwaz, Iran

6:53 PM +0430 on April 30, 2017 (GMT +0430)
Ahwaz

Weather History for OIAW - February, 2013

Change the Weather History Date:

Tuesday, February 26, 2013

  Actual Average Record
Temperature  
Mean Temperature 65 °F -  
Max Temperature 77 °F - - ()
Min Temperature 53 °F - - ()
Growing Degree Days 15 (Base 50)    
Moisture  
Dew Point 47 °F    
Average Humidity 52    
Maximum Humidity 88    
Minimum Humidity 16    
Precipitation  
Precipitation 0.00 in - - ()
Sea Level Pressure  
Sea Level Pressure 30.11 in    
Wind  
Wind Speed 3 mph ()    
Max Wind Speed 9 mph    
Max Gust Speed -    
Visibility 5.2 miles    
Events      
T = Trace of Precipitation, MM = Missing Value Source: Averaged Metar Reports

Daily Weather History Graph

Daily Weather History Graph

Search for Another Location

Airport or City:

Trip Planner

Search our weather history database for the weather conditions in past years. The results will help you decide how hot, cold, wet, or windy it might be!

Date:

Astronomy

Feb. 26, 2013 Rise Set
Actual Time 6:45 AM +0330 6:11 PM +0330
Civil Twilight 6:21 AM +0330 6:35 PM +0330
Nautical Twilight 5:53 AM +0330 7:03 PM +0330
Astronomical Twilight 5:24 AM +0330 7:31 PM +0330
Moon 6:56 PM +0330 (2/26) 6:40 AM +0330 (2/26)
Length of Visible Light 12h 14m
Length of Day
11h 25m
Full, 100% of the Moon is Illuminated
Feb 26
Full
Mar 5
Last Quarter
Mar 11
New
Mar 19
First Quarter
Mar 27
Full

Hourly Weather History & Observations

Time (+0330) Temp. Dew Point Humidity Pressure Visibility Wind Dir Wind Speed Gust Speed Precip Events Conditions
12:30 AM 62.6 °F 48.2 °F 59% 30.12 in 5.0 mi West 6.9 mph - N/A   Clear
1:30 AM 60.8 °F 48.2 °F 63% 30.12 in 5.0 mi WNW 9.2 mph - N/A   Clear
2:30 AM 59.0 °F 48.2 °F 67% 30.12 in 5.0 mi West 6.9 mph - N/A   Clear
3:30 AM 57 °F 49 °F 68% 30.12 in 5 mi West 6.7 mph - -   Haze
3:30 AM 57.2 °F 50.0 °F 77% 30.09 in 5.0 mi West 6.9 mph - N/A   Unknown
4:30 AM 55.4 °F 50.0 °F 82% 30.09 in 5.0 mi West 4.6 mph - N/A   Clear
5:30 AM 53.6 °F 50.0 °F 88% 30.09 in 5.0 mi West 4.6 mph - N/A   Clear
6:30 AM 53.6 °F 48.2 °F 82% 30.12 in 5.0 mi West 6.9 mph - N/A   Unknown
7:30 AM 53.6 °F 46.4 °F 77% 30.12 in 5.0 mi Calm Calm - N/A   Unknown
8:30 AM 59.0 °F 50.0 °F 72% 30.15 in - NNW 4.6 mph - N/A   Clear
9:30 AM 60 °F 47 °F 52% 30.19 in 6 mi Calm Calm - -   Clear
9:30 AM 60.8 °F 46.4 °F 59% 30.18 in - Calm Calm - N/A   Clear
10:30 AM 68.0 °F 48.2 °F 49% 30.18 in - Calm Calm - N/A   Clear
11:30 AM 69.8 °F 48.2 °F 46% 30.18 in - Calm Calm - N/A   Clear
12:30 PM 71.6 °F 48.2 °F 43% 30.15 in - SW 4.6 mph - N/A   Clear
1:30 PM 75.2 °F 48.2 °F 38% 30.12 in - NW 6.9 mph - N/A   Clear
2:30 PM 77.0 °F 46.4 °F 34% 30.09 in - North 6.9 mph - N/A   Clear
3:20 PM 77.0 °F 39.2 °F 26% 30.09 in - NNW 4.6 mph - N/A   Clear
3:30 PM 77 °F 39 °F 16% 30.12 in 6 mi NNW 4.5 mph - -   Clear
3:30 PM 77.0 °F 39.2 °F 26% 30.09 in - NNW 4.6 mph - N/A   Clear
4:00 PM 77.0 °F 39.2 °F 26% 30.09 in - NW 6.9 mph - N/A   Clear
4:20 PM 77.0 °F 41.0 °F 28% 30.09 in - Calm Calm - N/A   Clear
4:30 PM 77.0 °F 41.0 °F 28% 30.09 in - Calm Calm - N/A   Clear
5:00 PM 75.2 °F 41.0 °F 29% 30.09 in - NNW 4.6 mph - N/A   Clear
5:20 PM 75.2 °F 42.8 °F 31% 30.09 in - Calm Calm - N/A   Clear
5:30 PM 75.2 °F 42.8 °F 31% 30.09 in - Calm Calm - N/A   Clear
6:00 PM 73.4 °F 42.8 °F 33% 30.09 in - Calm Calm - N/A   Clear
6:20 PM 71.6 °F 51.8 °F 50% 30.06 in - Calm Calm - N/A   Clear
6:30 PM 71.6 °F 51.8 °F 50% 30.06 in - Calm Calm - N/A   Clear
7:00 PM 69.8 °F 51.8 °F 53% 30.06 in - Calm Calm - N/A   Clear
7:20 PM 69.8 °F 50.0 °F 49% 30.09 in - Calm Calm - N/A   Clear
7:30 PM 69.8 °F 50.0 °F 49% 30.09 in - Calm Calm - N/A   Clear
8:00 PM 68.0 °F 50.0 °F 52% 30.09 in - Calm Calm - N/A   Clear
8:20 PM 64.4 °F 55.4 °F 73% 30.12 in - Calm Calm - N/A   Clear
8:30 PM 64.4 °F 55.4 °F 73% 30.12 in - Calm Calm - N/A   Clear
9:00 PM 62.6 °F 53.6 °F 72% 30.12 in - Calm Calm - N/A   Clear
9:20 PM 64.4 °F 48.2 °F 56% 30.12 in - Calm Calm - N/A   Clear
9:30 PM 65 °F 49 °F 45% 30.13 in 6 mi Calm Calm - -  
9:30 PM 64.4 °F 48.2 °F 56% 30.12 in - Calm Calm - N/A   Clear
10:00 PM 64.4 °F 48.2 °F 56% 30.12 in - Calm Calm - N/A   Clear
10:20 PM 62.6 °F 48.2 °F 59% 30.12 in - Calm Calm - N/A   Clear
10:30 PM 62.6 °F 48.2 °F 59% 30.12 in - Calm Calm - N/A   Clear
11:30 PM 60.8 °F 48.2 °F 63% 30.09 in - Calm Calm - N/A   Clear